Change the Weather History Date:

Wednesday, October 31, 2012

  Actual Average Record
Temperature  
Mean Temperature 58 °F -  
Max Temperature 70 °F 60 °F 77 °F (1963)
Min Temperature 46 °F 40 °F 27 °F (1971)
Degree Days  
Heating Degree Days 7    
Growing Degree Days 8 (Base 50)    
Moisture  
Dew Point 24 °F    
Average Humidity 27    
Maximum Humidity 40    
Minimum Humidity 9    
Precipitation  
Precipitation 0.00 in - - ()
Sea Level Pressure  
Sea Level Pressure 30.04 in    
Wind  
Wind Speed 2 mph (West)    
Max Wind Speed 5 mph    
Max Gust Speed -    
Visibility 10 miles    
Events      
Averages and records for this station are not official NWS values.
T = Trace of Precipitation, MM = Missing Value Source: NWS Daily Summary

Daily Weather History Graph

Daily Weather History Graph

Search for Another Location

Airport or City:

Trip Planner

Search our weather history database for the weather conditions in past years. The results will help you decide how hot, cold, wet, or windy it might be!

Date:

Astronomy

Oct. 31, 2012 Rise Set
Actual Time 6:49 AM MST 5:28 PM MST
Civil Twilight 6:22 AM MST 5:55 PM MST
Nautical Twilight 5:51 AM MST 6:26 PM MST
Astronomical Twilight 5:21 AM MST 6:56 PM MST
Moon 6:45 PM MST (10/31) 8:30 AM MST (10/31)
Length of Visible Light 11h 33m
Length of Day
10h 39m
Waning Gibbous, 97% of the Moon is Illuminated
Oct 31
Waning Gibbous
Nov 6
Last Quarter
Nov 13
New
Nov 20
First Quarter
Nov 28
Full

Hourly Weather History & Observations

Time (MST) Temp. Dew Point Humidity Pressure Visibility Wind Dir Wind Speed Gust Speed Precip Events Conditions
12:53 AM 52.0 °F 25.0 °F 35% 30.06 in 10.0 mi WSW 3.5 mph - N/A   Clear
1:53 AM 51.1 °F 24.1 °F 35% 30.06 in 10.0 mi Calm Calm - N/A   Clear
2:53 AM 50.0 °F 24.1 °F 36% 30.06 in 7.0 mi Calm Calm - N/A   Clear
3:53 AM 50.0 °F 21.9 °F 33% 30.05 in 10.0 mi WSW 4.6 mph - N/A   Clear
4:53 AM 48.9 °F 21.9 °F 35% 30.07 in 10.0 mi Calm Calm - N/A   Clear
5:53 AM 48.9 °F 21.9 °F 35% 30.09 in 10.0 mi West 4.6 mph - N/A   Clear
6:53 AM 46.0 °F 23.0 °F 40% 30.11 in 10.0 mi Calm Calm - N/A   Clear
7:53 AM 52.0 °F 23.0 °F 32% 30.12 in 10.0 mi Calm Calm - N/A   Clear
8:53 AM 54.0 °F 21.0 °F 28% 30.13 in 10.0 mi WNW 4.6 mph - N/A   Clear
9:53 AM 55.9 °F 24.1 °F 29% 30.14 in 10.0 mi WNW 3.5 mph - N/A   Clear
10:53 AM 60.1 °F 25.0 °F 26% 30.13 in 10.0 mi North 3.5 mph - N/A   Clear
11:53 AM 62.1 °F 26.1 °F 25% 30.10 in 10.0 mi North 3.5 mph - N/A   Clear
12:53 PM 66.9 °F 26.1 °F 21% 30.05 in 10.0 mi Calm Calm - N/A   Clear
1:53 PM 69.1 °F 24.1 °F 18% 30.01 in 10.0 mi Variable 3.5 mph - N/A   Unknown
2:53 PM 70.0 °F 26.1 °F 19% 29.99 in 10.0 mi North 4.6 mph - N/A   Clear
3:53 PM 71.1 °F 24.1 °F 17% 29.97 in 10.0 mi North 4.6 mph - N/A   Clear
4:53 PM 70.0 °F 25.0 °F 18% 29.96 in 10.0 mi Calm Calm - N/A   Clear
5:53 PM 62.1 °F 28.9 °F 29% 29.98 in 10.0 mi WSW 3.5 mph - N/A   Clear
6:53 PM 59.0 °F 28.0 °F 31% 30.00 in 10.0 mi SW 3.5 mph - N/A   Clear
7:53 PM 61.0 °F 26.1 °F 26% 29.99 in 10.0 mi SSW 3.5 mph - N/A   Clear
8:53 PM 55.9 °F 28.0 °F 34% 30.01 in 10.0 mi Calm Calm - N/A   Clear
9:53 PM 57.0 °F 25.0 °F 29% 30.00 in 10.0 mi South 3.5 mph - N/A   Clear
10:53 PM 57.0 °F 21.9 °F 26% 29.99 in 10.0 mi West 3.5 mph - N/A   Clear
11:53 PM 55.9 °F 21.0 °F 26% 30.00 in 10.0 mi SW 3.5 mph - N/A   Clear